sat.trackr.live / text

‹ back to catalog

STARLINK-31869

NORAD 60196 · 2024-124P

PAYLOAD ACTIVE UNKNOWN

§ Identity

Operator
Country
US
Launch date
2024-07-03
Launch site
AFETR
Launch vehicle
Mass (kg)
RCS (m²)

Purposes: comms

External: N2YO · Heavens-Above · Gunter

§ Orbital elements

Epoch: 2026-09-21T20:51:19.554048Z

Period
94.01 min
Inclination
53.1593°
Eccentricity
0.0001245
Mean motion
15.31676541 rev/d
Perigee alt
470.0 km
Apogee alt
471.7 km
Semi-major
6,848.9 km
B*
3.4079e-5
RAAN
129.7018°
Arg perigee
91.7668°
Mean anomaly
268.3476°
Rev number
12,435

§ Raw data

STARLINK-318691 60196U 24124P   26264.86897632  .00000692  00000+0  34079-4 0  99972 60196  53.1593 129.7018 0001245  91.7668 268.3476 15.31676541124357

JSON: /api/v1/satellites/60196 · /tle

For live sub-satellite position, see the globe view (requires WebGL).

§ Visibility from observer

Set your observer location to see the next 7 days of passes ≥ 10°. The values pass through the URL so the page stays shareable.

No JS? Fill the form by hand. The geolocation button needs JavaScript.